Time,TemperatureF,DewpointF,PressureIn,WindDirection,WindDirectionDegrees,WindSpeedMPH,WindSpeedGustMPH,Humidity,HourlyPrecipIn,Conditions,Clouds,dailyrainin,SoftwareType,DateUTC
2013-11-20 00:00:00,34.4,29.8,30.28,South,190,3.0,8.0,83,0.00,,CLR,0.00,VWS V14.01,2013-11-20 06:00:00,
2013-11-20 00:04:00,34.4,29.8,30.28,SSE,163,3.0,9.0,83,0.00,,CLR,0.00,VWS V14.01,2013-11-20 06:04:00,
2013-11-20 00:09:00,34.4,29.5,30.29,SE,131,5.0,5.0,82,0.00,,CLR,0.00,VWS V14.01,2013-11-20 06:09:00,
2013-11-20 00:10:00,34.5,29.6,30.29,South,183,2.0,9.0,82,0.00,,CLR,0.00,VWS V14.01,2013-11-20 06:10:00,
2013-11-20 00:14:00,34.3,29.7,30.29,SSW,195,1.0,7.0,83,0.00,,CLR,0.00,VWS V14.01,2013-11-20 06:14:00,
2013-11-20 00:19:00,34.3,29.7,30.29,SSE,151,6.0,6.0,83,0.00,,CLR,0.00,VWS V14.01,2013-11-20 06:19:00,
2013-11-20 00:20:00,34.3,29.7,30.29,SW,226,4.0,7.0,83,0.00,,CLR,0.00,VWS V14.01,2013-11-20 06:20:00,
2013-11-20 00:24:00,34.1,29.5,30.29,SSW,200,2.0,8.0,83,0.00,,CLR,0.00,VWS V14.01,2013-11-20 06:24:00,
2013-11-20 00:29:00,34.1,29.5,30.29,SSW,198,0.0,6.0,83,0.00,,CLR,0.00,VWS V14.01,2013-11-20 06:29:00,
2013-11-20 00:30:00,34.1,29.5,30.29,SSW,195,6.0,8.0,83,0.00,,CLR,0.00,VWS V14.01,2013-11-20 06:30:00,
2013-11-20 00:34:00,33.9,29.3,30.29,South,188,5.0,6.0,83,0.00,,CLR,0.00,VWS V14.01,2013-11-20 06:34:00,
2013-11-20 00:39:00,33.9,29.3,30.29,South,181,5.0,5.0,83,0.00,,CLR,0.00,VWS V14.01,2013-11-20 06:39:00,
2013-11-20 00:40:00,33.9,29.3,30.29,South,173,4.0,8.0,83,0.00,,CLR,0.00,VWS V14.01,2013-11-20 06:40:00,
2013-11-20 00:44:00,33.8,29.2,30.29,SSW,205,5.0,7.0,83,0.00,,CLR,0.00,VWS V14.01,2013-11-20 06:44:00,
2013-11-20 00:49:00,33.7,29.4,30.29,SSW,195,3.0,6.0,84,0.00,,CLR,0.00,VWS V14.01,2013-11-20 06:49:00,
2013-11-20 00:50:00,33.8,29.5,30.29,SSW,197,5.0,9.0,84,0.00,,CLR,0.00,VWS V14.01,2013-11-20 06:50:00,
2013-11-20 00:54:00,33.6,29.3,30.29,South,191,3.0,7.0,84,0.00,,CLR,0.00,VWS V14.01,2013-11-20 06:54:00,
2013-11-20 00:59:00,33.4,29.1,30.29,SSW,198,4.0,6.0,84,0.00,,CLR,0.00,VWS V14.01,2013-11-20 06:59:00,
2013-11-20 01:00:00,33.5,29.2,30.29,SSW,210,2.0,7.0,84,0.00,,OVC080,0.00,VWS V14.01,2013-11-20 07:00:00,
2013-11-20 01:04:00,33.3,29.3,30.29,SSW,194,2.0,10.0,85,0.00,,CLR,0.00,VWS V14.01,2013-11-20 07:04:00,
2013-11-20 01:09:00,33.3,29.3,30.29,SSE,150,4.0,7.0,85,0.00,,CLR,0.00,VWS V14.01,2013-11-20 07:09:00,
2013-11-20 01:10:00,33.3,29.3,30.29,SSW,195,7.0,10.0,85,0.00,,CLR,0.00,VWS V14.01,2013-11-20 07:10:00,
2013-11-20 01:14:00,33.3,29.3,30.29,South,184,3.0,7.0,85,0.00,,CLR,0.00,VWS V14.01,2013-11-20 07:14:00,
2013-11-20 01:20:00,33.2,29.2,30.29,South,186,3.0,4.0,85,0.00,,CLR,0.00,VWS V14.01,2013-11-20 07:20:00,
2013-11-20 01:25:00,33.2,29.2,30.29,SE,146,3.0,9.0,85,0.00,,CLR,0.00,VWS V14.01,2013-11-20 07:25:00,
2013-11-20 01:30:00,33.2,29.2,30.29,SSW,197,3.0,7.0,85,0.00,,CLR,0.00,VWS V14.01,2013-11-20 07:30:00,
2013-11-20 01:35:00,33.3,29.3,30.29,South,181,3.0,9.0,85,0.00,,CLR,0.00,VWS V14.01,2013-11-20 07:35:00,
2013-11-20 01:40:00,33.2,29.2,30.30,SW,217,4.0,8.0,85,0.00,,CLR,0.00,VWS V14.01,2013-11-20 07:40:00,
2013-11-20 01:45:00,33.2,29.2,30.30,SW,215,3.0,9.0,85,0.00,,CLR,0.00,VWS V14.01,2013-11-20 07:45:00,
2013-11-20 01:50:00,33.2,29.2,30.30,SSE,152,3.0,10.0,85,0.00,,CLR,0.00,VWS V14.01,2013-11-20 07:50:00,
2013-11-20 01:55:00,33.2,29.2,30.29,SSW,198,3.0,10.0,85,0.00,,CLR,0.00,VWS V14.01,2013-11-20 07:55:00,
2013-11-20 02:00:00,33.2,29.2,30.29,South,191,6.0,9.0,85,0.00,,CLR,0.00,VWS V14.01,2013-11-20 08:00:00,
2013-11-20 02:05:00,33.3,29.3,30.30,South,179,1.0,10.0,85,0.00,,CLR,0.00,VWS V14.01,2013-11-20 08:05:00,
2013-11-20 02:10:00,33.3,29.3,30.30,ESE,122,6.0,9.0,85,0.00,,CLR,0.00,VWS V14.01,2013-11-20 08:10:00,
2013-11-20 02:15:00,33.3,29.3,30.30,SSE,148,5.0,11.0,85,0.00,,CLR,0.00,VWS V14.01,2013-11-20 08:15:00,
2013-11-20 02:20:00,33.3,29.3,30.30,SSE,167,2.0,11.0,85,0.00,,CLR,0.00,VWS V14.01,2013-11-20 08:20:00,
2013-11-20 02:25:00,33.3,29.0,30.30,SSE,149,5.0,11.0,84,0.00,,CLR,0.00,VWS V14.01,2013-11-20 08:25:00,
2013-11-20 02:30:00,33.2,29.2,30.30,SSW,202,3.0,6.0,85,0.00,,CLR,0.00,VWS V14.01,2013-11-20 08:30:00,
2013-11-20 02:36:00,33.2,29.2,30.30,South,187,3.0,8.0,85,0.00,,CLR,0.00,VWS V14.01,2013-11-20 08:36:00,
2013-11-20 02:40:00,33.2,29.2,30.29,SSE,158,2.0,9.0,85,0.00,,CLR,0.00,VWS V14.01,2013-11-20 08:40:00,
2013-11-20 02:41:00,33.2,29.2,30.30,South,173,3.0,6.0,85,0.00,,CLR,0.00,VWS V14.01,2013-11-20 08:41:00,
2013-11-20 02:46:00,33.0,29.0,30.30,SSW,203,2.0,6.0,85,0.00,,CLR,0.00,VWS V14.01,2013-11-20 08:46:00,
2013-11-20 02:50:00,33.0,29.0,30.30,SSE,160,3.0,6.0,85,0.00,,CLR,0.00,VWS V14.01,2013-11-20 08:50:00,
2013-11-20 02:51:00,32.9,28.9,30.30,SW,219,2.0,7.0,85,0.00,,CLR,0.00,VWS V14.01,2013-11-20 08:51:00,
2013-11-20 02:56:00,32.9,28.9,30.30,South,187,3.0,7.0,85,0.00,,CLR,0.00,VWS V14.01,2013-11-20 08:56:00,
2013-11-20 03:00:00,32.9,28.9,30.30,South,175,2.0,7.0,85,0.00,,CLR,0.00,VWS V14.01,2013-11-20 09:00:00,
2013-11-20 03:01:00,32.9,28.9,30.30,South,174,4.0,7.0,85,0.00,,CLR,0.00,VWS V14.01,2013-11-20 09:01:00,
2013-11-20 03:06:00,32.8,28.8,30.29,SE,141,5.0,8.0,85,0.00,,CLR,0.00,VWS V14.01,2013-11-20 09:06:00,
2013-11-20 03:10:00,32.8,28.8,30.29,WSW,239,2.0,8.0,85,0.00,,CLR,0.00,VWS V14.01,2013-11-20 09:10:00,
2013-11-20 03:11:00,32.7,29.0,30.29,SSW,194,4.0,7.0,86,0.00,,CLR,0.00,VWS V14.01,2013-11-20 09:11:00,
2013-11-20 03:16:00,32.8,29.1,30.28,SW,229,5.0,8.0,86,0.00,,CLR,0.00,VWS V14.01,2013-11-20 09:16:00,
2013-11-20 03:20:00,32.9,29.2,30.28,SSW,194,4.0,8.0,86,0.00,,CLR,0.00,VWS V14.01,2013-11-20 09:20:00,
2013-11-20 03:21:00,33.0,29.3,30.28,SE,136,5.0,10.0,86,0.00,,CLR,0.00,VWS V14.01,2013-11-20 09:21:00,
2013-11-20 03:26:00,33.1,29.1,30.28,SSW,212,4.0,10.0,85,0.00,,CLR,0.00,VWS V14.01,2013-11-20 09:26:00,
2013-11-20 03:30:00,33.1,29.1,30.28,South,174,4.0,10.0,85,0.00,,CLR,0.00,VWS V14.01,2013-11-20 09:30:00,
2013-11-20 03:31:00,33.2,29.2,30.28,South,178,8.0,13.0,85,0.00,,CLR,0.00,VWS V14.01,2013-11-20 09:31:00,
2013-11-20 03:36:00,33.1,29.1,30.28,SE,129,6.0,13.0,85,0.00,,CLR,0.00,VWS V14.01,2013-11-20 09:36:00,
2013-11-20 03:40:00,33.1,29.1,30.28,SSW,195,4.0,13.0,85,0.00,,CLR,0.00,VWS V14.01,2013-11-20 09:40:00,
2013-11-20 03:41:00,33.1,29.1,30.28,SSW,207,4.0,8.0,85,0.00,,CLR,0.00,VWS V14.01,2013-11-20 09:41:00,
2013-11-20 03:46:00,33.0,29.0,30.28,SSW,203,2.0,8.0,85,0.00,,CLR,0.00,VWS V14.01,2013-11-20 09:46:00,
2013-11-20 03:50:00,32.9,28.9,30.28,SSE,163,4.0,8.0,85,0.00,,CLR,0.00,VWS V14.01,2013-11-20 09:50:00,
2013-11-20 03:51:00,32.9,28.9,30.28,ESE,122,6.0,9.0,85,0.00,,CLR,0.00,VWS V14.01,2013-11-20 09:51:00,
2013-11-20 03:56:00,32.9,28.9,30.28,SW,231,3.0,9.0,85,0.00,,CLR,0.00,VWS V14.01,2013-11-20 09:56:00,
2013-11-20 04:00:00,32.9,28.9,30.28,SW,219,5.0,9.0,85,0.00,,CLR,0.00,VWS V14.01,2013-11-20 10:00:00,
2013-11-20 04:02:00,33.0,29.0,30.28,South,175,5.0,9.0,85,0.00,,CLR,0.00,VWS V14.01,2013-11-20 10:02:00,
2013-11-20 04:07:00,32.9,28.9,30.28,SSE,167,5.0,9.0,85,0.00,,CLR,0.00,VWS V14.01,2013-11-20 10:07:00,
2013-11-20 04:10:00,32.9,28.9,30.28,South,180,4.0,9.0,85,0.00,,CLR,0.00,VWS V14.01,2013-11-20 10:10:00,
2013-11-20 04:12:00,32.9,28.9,30.28,SSW,200,2.0,8.0,85,0.00,,CLR,0.00,VWS V14.01,2013-11-20 10:12:00,
2013-11-20 04:17:00,32.8,28.8,30.27,SE,137,5.0,9.0,85,0.00,,CLR,0.00,VWS V14.01,2013-11-20 10:17:00,
2013-11-20 04:20:00,32.8,28.8,30.27,SSE,167,3.0,9.0,85,0.00,,CLR,0.00,VWS V14.01,2013-11-20 10:20:00,
2013-11-20 04:22:00,32.8,28.8,30.27,SSE,158,4.0,7.0,85,0.00,,CLR,0.00,VWS V14.01,2013-11-20 10:22:00,
2013-11-20 04:27:00,32.7,28.7,30.27,South,169,3.0,9.0,85,0.00,,CLR,0.00,VWS V14.01,2013-11-20 10:27:00,
2013-11-20 04:30:00,32.7,28.7,30.27,SSW,203,2.0,9.0,85,0.00,,CLR,0.00,VWS V14.01,2013-11-20 10:30:00,
2013-11-20 04:32:00,32.6,28.6,30.27,South,174,3.0,6.0,85,0.00,,CLR,0.00,VWS V14.01,2013-11-20 10:32:00,
2013-11-20 04:37:00,32.6,28.6,30.27,SSW,210,2.0,8.0,85,0.00,,CLR,0.00,VWS V14.01,2013-11-20 10:37:00,
2013-11-20 04:40:00,32.6,28.6,30.27,SSW,212,5.0,8.0,85,0.00,,CLR,0.00,VWS V14.01,2013-11-20 10:40:00,
2013-11-20 04:42:00,32.6,28.6,30.27,South,186,5.0,6.0,85,0.00,,CLR,0.00,VWS V14.01,2013-11-20 10:42:00,
2013-11-20 04:47:00,32.5,28.5,30.27,SSW,205,4.0,7.0,85,0.00,,CLR,0.00,VWS V14.01,2013-11-20 10:47:00,
2013-11-20 04:50:00,32.5,28.5,30.27,SE,129,2.0,7.0,85,0.00,,CLR,0.00,VWS V14.01,2013-11-20 10:50:00,
2013-11-20 04:52:00,32.4,28.4,30.26,SE,145,4.0,7.0,85,0.00,,CLR,0.00,VWS V14.01,2013-11-20 10:52:00,
2013-11-20 04:57:00,32.3,28.6,30.26,SSW,208,4.0,7.0,86,0.00,,CLR,0.00,VWS V14.01,2013-11-20 10:57:00,
2013-11-20 05:00:00,32.3,28.6,30.26,SSE,165,2.0,7.0,86,0.00,,CLR,0.00,VWS V14.01,2013-11-20 11:00:00,
2013-11-20 05:02:00,32.3,28.6,30.26,South,170,3.0,8.0,86,0.00,,CLR,0.00,VWS V14.01,2013-11-20 11:02:00,
2013-11-20 05:07:00,32.3,28.6,30.26,SSE,158,3.0,10.0,86,0.00,,CLR,0.00,VWS V14.01,2013-11-20 11:07:00,
2013-11-20 05:10:00,32.3,28.6,30.26,SSE,165,3.0,10.0,86,0.00,,CLR,0.00,VWS V14.01,2013-11-20 11:10:00,
2013-11-20 05:12:00,32.4,28.7,30.26,South,191,6.0,11.0,86,0.00,,CLR,0.00,VWS V14.01,2013-11-20 11:12:00,
2013-11-20 05:17:00,32.4,28.4,30.26,SSW,211,5.0,11.0,85,0.00,,CLR,0.00,VWS V14.01,2013-11-20 11:17:00,
2013-11-20 05:20:00,32.4,28.4,30.26,SSW,211,5.0,11.0,85,0.00,,CLR,0.00,VWS V14.01,2013-11-20 11:20:00,
2013-11-20 05:23:00,32.5,28.5,30.25,SSE,155,5.0,10.0,85,0.00,,SCT110,0.00,VWS V14.01,2013-11-20 11:23:00,
2013-11-20 05:28:00,32.7,28.7,30.25,SSE,155,4.0,6.0,85,0.00,,SCT110,0.00,VWS V14.01,2013-11-20 11:28:00,
2013-11-20 05:30:00,32.7,28.7,30.25,SSE,154,4.0,12.0,85,0.00,,CLR,0.00,VWS V14.01,2013-11-20 11:30:00,
2013-11-20 05:33:00,32.9,28.9,30.25,SSE,155,3.0,13.0,85,0.00,,SCT110,0.00,VWS V14.01,2013-11-20 11:33:00,
2013-11-20 05:38:00,33.1,29.1,30.25,SSE,160,13.0,16.0,85,0.00,,SCT110,0.00,VWS V14.01,2013-11-20 11:38:00,
2013-11-20 05:40:00,33.1,29.1,30.25,SSW,197,4.0,13.0,85,0.00,,CLR,0.00,VWS V14.01,2013-11-20 11:40:00,
2013-11-20 05:43:00,33.1,28.8,30.24,SE,143,7.0,16.0,84,0.00,,BKN110,0.00,VWS V14.01,2013-11-20 11:43:00,
2013-11-20 05:48:00,33.2,28.9,30.24,SSE,153,8.0,9.0,84,0.00,,BKN110,0.00,VWS V14.01,2013-11-20 11:48:00,
2013-11-20 05:50:00,33.2,28.9,30.24,East,91,7.0,16.0,84,0.00,,CLR,0.00,VWS V14.01,2013-11-20 11:50:00,
2013-11-20 05:53:00,33.3,29.0,30.24,SSE,150,10.0,16.0,84,0.00,,BKN110,0.00,VWS V14.01,2013-11-20 11:53:00,
2013-11-20 05:58:00,33.3,29.0,30.24,SW,233,5.0,11.0,84,0.00,,BKN110,0.00,VWS V14.01,2013-11-20 11:58:00,
2013-11-20 06:00:00,33.3,29.0,30.24,SSW,197,7.0,16.0,84,0.00,,CLR,0.00,VWS V14.01,2013-11-20 12:00:00,
2013-11-20 06:03:00,33.3,29.0,30.24,South,184,15.0,15.0,84,0.00,,BKN110,0.00,VWS V14.01,2013-11-20 12:03:00,
2013-11-20 06:08:00,33.3,28.7,30.24,South,190,6.0,15.0,83,0.00,,BKN110,0.00,VWS V14.01,2013-11-20 12:08:00,
2013-11-20 06:10:00,33.3,28.7,30.24,SSE,152,13.0,15.0,83,0.00,,CLR,0.00,VWS V14.01,2013-11-20 12:10:00,
2013-11-20 06:13:00,33.2,28.9,30.24,SSE,151,6.0,15.0,84,0.00,,BKN110,0.00,VWS V14.01,2013-11-20 12:13:00,
2013-11-20 06:18:00,33.2,28.9,30.24,SSE,156,7.0,10.0,84,0.00,,BKN110,0.00,VWS V14.01,2013-11-20 12:18:00,
2013-11-20 06:20:00,33.2,28.9,30.24,South,172,9.0,15.0,84,0.00,,CLR,0.00,VWS V14.01,2013-11-20 12:20:00,
2013-11-20 06:23:00,33.2,28.9,30.24,SSW,198,10.0,16.0,84,0.00,,BKN110,0.00,VWS V14.01,2013-11-20 12:23:00,
2013-11-20 06:28:00,33.2,28.6,30.23,SSE,148,4.0,12.0,83,0.00,,BKN110,0.00,VWS V14.01,2013-11-20 12:28:00,
2013-11-20 06:30:00,33.2,28.6,30.23,South,171,9.0,19.0,83,0.00,,CLR,0.00,VWS V14.01,2013-11-20 12:30:00,
2013-11-20 06:33:00,33.2,28.6,30.23,South,179,5.0,12.0,83,0.00,,BKN110,0.00,VWS V14.01,2013-11-20 12:33:00,
2013-11-20 06:38:00,33.3,28.7,30.24,SE,133,6.0,15.0,83,0.00,,BKN110,0.00,VWS V14.01,2013-11-20 12:38:00,
2013-11-20 06:40:00,33.3,28.7,30.24,South,186,15.0,15.0,83,0.00,,CLR,0.00,VWS V14.01,2013-11-20 12:40:00,
2013-11-20 06:44:00,33.3,28.7,30.24,SSW,205,9.0,15.0,83,0.00,,SCT110,0.00,VWS V14.01,2013-11-20 12:44:00,
2013-11-20 06:49:00,33.2,28.6,30.24,SW,226,8.0,12.0,83,0.00,,SCT110,0.00,VWS V14.01,2013-11-20 12:49:00,
2013-11-20 06:50:00,33.2,28.6,30.24,SSW,194,7.0,15.0,83,0.00,,CLR,0.00,VWS V14.01,2013-11-20 12:50:00,
2013-11-20 06:54:00,33.2,28.6,30.24,SSE,165,7.0,18.0,83,0.00,,SCT110,0.00,VWS V14.01,2013-11-20 12:54:00,
2013-11-20 06:59:00,33.3,28.7,30.24,SSW,195,3.0,13.0,83,0.00,,SCT110,0.00,VWS V14.01,2013-11-20 12:59:00,
2013-11-20 07:00:00,33.3,28.7,30.24,SE,124,8.0,18.0,83,0.00,,CLR,0.00,VWS V14.01,2013-11-20 13:00:00,
2013-11-20 07:04:00,33.2,28.6,30.24,West,260,5.0,15.0,83,0.00,,CLR,0.00,VWS V14.01,2013-11-20 13:04:00,
2013-11-20 07:09:00,33.2,28.6,30.24,ESE,122,6.0,13.0,83,0.00,,CLR,0.00,VWS V14.01,2013-11-20 13:09:00,
2013-11-20 07:10:00,33.2,28.6,30.24,SSW,194,8.0,15.0,83,0.00,,CLR,0.00,VWS V14.01,2013-11-20 13:10:00,
2013-11-20 07:14:00,33.1,28.5,30.24,SSE,166,4.0,13.0,83,0.00,,CLR,0.00,VWS V14.01,2013-11-20 13:14:00,
2013-11-20 07:19:00,33.1,28.5,30.24,SSE,150,3.0,10.0,83,0.00,,CLR,0.00,VWS V14.01,2013-11-20 13:19:00,
2013-11-20 07:20:00,33.1,28.5,30.24,South,169,8.0,14.0,83,0.00,,CLR,0.00,VWS V14.01,2013-11-20 13:20:00,
2013-11-20 07:24:00,33.1,28.5,30.24,SW,219,7.0,13.0,83,0.00,,CLR,0.00,VWS V14.01,2013-11-20 13:24:00,
2013-11-20 07:29:00,33.2,28.6,30.24,SSE,158,6.0,11.0,83,0.00,,CLR,0.00,VWS V14.01,2013-11-20 13:29:00,
2013-11-20 07:30:00,33.2,28.6,30.24,South,170,4.0,13.0,83,0.00,,CLR,0.00,VWS V14.01,2013-11-20 13:30:00,
2013-11-20 07:34:00,33.2,28.6,30.24,South,172,7.0,15.0,83,0.00,,CLR,0.00,VWS V14.01,2013-11-20 13:34:00,
2013-11-20 07:39:00,33.3,28.4,30.24,South,169,9.0,11.0,82,0.00,,CLR,0.00,VWS V14.01,2013-11-20 13:39:00,
2013-11-20 07:40:00,33.2,28.3,30.24,SSE,152,7.0,15.0,82,0.00,,CLR,0.00,VWS V14.01,2013-11-20 13:40:00,
2013-11-20 07:44:00,33.3,28.4,30.24,ESE,113,9.0,12.0,82,0.00,,CLR,0.00,VWS V14.01,2013-11-20 13:44:00,
2013-11-20 07:49:00,33.6,28.7,30.24,SSE,163,3.0,10.0,82,0.00,,CLR,0.00,VWS V14.01,2013-11-20 13:49:00,
2013-11-20 07:50:00,33.5,28.6,30.24,SSE,163,5.0,17.0,82,0.00,,CLR,0.00,VWS V14.01,2013-11-20 13:50:00,
2013-11-20 07:54:00,33.8,28.9,30.24,SSE,158,8.0,14.0,82,0.00,,CLR,0.00,VWS V14.01,2013-11-20 13:54:00,
2013-11-20 07:59:00,34.1,29.2,30.25,SSW,193,6.0,9.0,82,0.00,,CLR,0.00,VWS V14.01,2013-11-20 13:59:00,
2013-11-20 08:00:00,34.0,29.1,30.25,South,184,9.0,14.0,82,0.00,,CLR,0.00,VWS V14.01,2013-11-20 14:00:00,
2013-11-20 08:04:00,34.5,29.3,30.26,South,183,5.0,10.0,81,0.00,,CLR,0.00,VWS V14.01,2013-11-20 14:04:00,
2013-11-20 08:09:00,34.5,29.3,30.26,SW,231,6.0,7.0,81,0.00,,CLR,0.00,VWS V14.01,2013-11-20 14:09:00,
2013-11-20 08:10:00,34.5,29.0,30.26,ESE,123,3.0,15.0,80,0.00,,OVC080,0.00,VWS V14.01,2013-11-20 14:10:00,
2013-11-20 08:14:00,34.7,29.2,30.26,SSW,195,7.0,10.0,80,0.00,,CLR,0.00,VWS V14.01,2013-11-20 14:14:00,
2013-11-20 08:20:00,35.0,29.5,30.26,South,173,11.0,11.0,80,0.00,,CLR,0.00,VWS V14.01,2013-11-20 14:20:00,
2013-11-20 08:25:00,35.1,29.6,30.26,South,172,8.0,12.0,80,0.00,,CLR,0.00,VWS V14.01,2013-11-20 14:25:00,
2013-11-20 08:30:00,35.1,29.6,30.26,SW,214,3.0,6.0,80,0.00,,CLR,0.00,VWS V14.01,2013-11-20 14:30:00,
2013-11-20 08:35:00,35.4,29.5,30.26,SSE,167,3.0,14.0,79,0.00,,CLR,0.00,VWS V14.01,2013-11-20 14:35:00,
2013-11-20 08:40:00,35.8,29.9,30.26,SSW,207,4.0,12.0,79,0.00,,CLR,0.00,VWS V14.01,2013-11-20 14:40:00,
2013-11-20 08:45:00,35.9,29.7,30.25,South,191,6.0,12.0,78,0.00,,CLR,0.00,VWS V14.01,2013-11-20 14:45:00,
2013-11-20 08:50:00,35.9,29.7,30.25,SSE,153,7.0,13.0,78,0.00,,CLR,0.00,VWS V14.01,2013-11-20 14:50:00,
2013-11-20 08:55:00,36.1,29.9,30.25,South,169,8.0,13.0,78,0.00,,CLR,0.00,VWS V14.01,2013-11-20 14:55:00,
2013-11-20 09:00:00,36.7,30.2,30.25,SSW,193,9.0,13.0,77,0.00,,CLR,0.00,VWS V14.01,2013-11-20 15:00:00,
2013-11-20 09:05:00,37.1,30.2,30.24,SSW,205,5.0,15.0,76,0.00,,CLR,0.00,VWS V14.01,2013-11-20 15:05:00,
2013-11-20 09:10:00,37.3,30.4,30.24,SE,128,17.0,21.0,76,0.00,,CLR,0.00,VWS V14.01,2013-11-20 15:10:00,
2013-11-20 09:15:00,37.3,30.1,30.24,SSE,149,7.0,21.0,75,0.00,,CLR,0.00,VWS V14.01,2013-11-20 15:15:00,
2013-11-20 09:20:00,37.5,30.3,30.25,SSE,151,5.0,11.0,75,0.00,,CLR,0.00,VWS V14.01,2013-11-20 15:20:00,
2013-11-20 09:25:00,37.7,30.8,30.25,SSE,162,3.0,12.0,76,0.00,,CLR,0.00,VWS V14.01,2013-11-20 15:25:00,
2013-11-20 09:30:00,37.9,30.4,30.25,ESE,122,6.0,13.0,74,0.00,,CLR,0.00,VWS V14.01,2013-11-20 15:30:00,
2013-11-20 09:35:00,37.8,30.3,30.24,SSW,198,13.0,17.0,74,0.00,,CLR,0.00,VWS V14.01,2013-11-20 15:35:00,
2013-11-20 09:40:00,38.2,31.0,30.24,SSE,148,6.0,9.0,75,0.00,,CLR,0.00,VWS V14.01,2013-11-20 15:40:00,
2013-11-20 09:46:00,38.3,30.8,30.24,SW,214,7.0,13.0,74,0.00,,CLR,0.00,VWS V14.01,2013-11-20 15:46:00,
2013-11-20 09:50:00,38.2,30.7,30.24,SE,142,7.0,13.0,74,0.00,,CLR,0.00,VWS V14.01,2013-11-20 15:50:00,
2013-11-20 09:51:00,38.1,30.6,30.25,South,190,3.0,12.0,74,0.00,,CLR,0.00,VWS V14.01,2013-11-20 15:51:00,
2013-11-20 09:56:00,38.3,30.8,30.25,SW,223,8.0,13.0,74,0.00,,CLR,0.00,VWS V14.01,2013-11-20 15:56:00,
2013-11-20 10:00:00,38.2,30.7,30.25,SE,145,8.0,14.0,74,0.00,,CLR,0.00,VWS V14.01,2013-11-20 16:00:00,
2013-11-20 10:01:00,38.4,30.9,30.25,SSW,207,7.0,12.0,74,0.00,,CLR,0.00,VWS V14.01,2013-11-20 16:01:00,
2013-11-20 10:06:00,38.3,30.8,30.25,South,173,6.0,13.0,74,0.00,,CLR,0.00,VWS V14.01,2013-11-20 16:06:00,
2013-11-20 10:10:00,38.3,30.8,30.25,SE,141,5.0,13.0,74,0.00,,CLR,0.00,VWS V14.01,2013-11-20 16:10:00,
2013-11-20 10:11:00,38.1,30.6,30.25,WSW,246,2.0,12.0,74,0.00,,CLR,0.00,VWS V14.01,2013-11-20 16:11:00,
2013-11-20 10:16:00,38.2,31.0,30.25,ESE,105,6.0,12.0,75,0.00,,CLR,0.00,VWS V14.01,2013-11-20 16:16:00,
2013-11-20 10:20:00,38.3,31.1,30.25,SE,141,7.0,12.0,75,0.00,,CLR,0.00,VWS V14.01,2013-11-20 16:20:00,
2013-11-20 10:21:00,38.5,31.3,30.25,SSE,166,6.0,8.0,75,0.00,,CLR,0.00,VWS V14.01,2013-11-20 16:21:00,
2013-11-20 10:26:00,38.5,31.0,30.25,SSW,208,6.0,10.0,74,0.00,,CLR,0.00,VWS V14.01,2013-11-20 16:26:00,
2013-11-20 10:30:00,38.6,31.4,30.25,WSW,239,6.0,10.0,75,0.00,,CLR,0.00,VWS V14.01,2013-11-20 16:30:00,
2013-11-20 10:31:00,38.9,31.3,30.25,South,190,7.0,7.0,74,0.00,,CLR,0.00,VWS V14.01,2013-11-20 16:31:00,
2013-11-20 10:36:00,39.1,31.5,30.25,South,170,5.0,11.0,74,0.00,,CLR,0.00,VWS V14.01,2013-11-20 16:36:00,
2013-11-20 10:40:00,39.1,31.5,30.25,SSE,158,3.0,11.0,74,0.00,,CLR,0.00,VWS V14.01,2013-11-20 16:40:00,
2013-11-20 10:41:00,39.4,32.2,30.25,SW,222,1.0,5.0,75,0.00,,CLR,0.00,VWS V14.01,2013-11-20 16:41:00,
2013-11-20 10:46:00,39.9,32.3,30.25,SE,133,3.0,6.0,74,0.00,,CLR,0.00,VWS V14.01,2013-11-20 16:46:00,
2013-11-20 10:50:00,40.1,32.5,30.24,SW,217,4.0,9.0,74,0.00,,CLR,0.00,VWS V14.01,2013-11-20 16:50:00,
2013-11-20 10:51:00,40.3,32.0,30.24,WSW,253,4.0,9.0,72,0.00,,CLR,0.00,VWS V14.01,2013-11-20 16:51:00,
2013-11-20 10:56:00,40.5,32.5,30.24,SW,226,6.0,10.0,73,0.00,,CLR,0.00,VWS V14.01,2013-11-20 16:56:00,
2013-11-20 11:00:00,40.5,32.5,30.24,SW,235,2.0,10.0,73,0.00,,CLR,0.00,VWS V14.01,2013-11-20 17:00:00,
2013-11-20 11:01:00,40.7,32.4,30.24,SE,145,5.0,11.0,72,0.00,,CLR,0.00,VWS V14.01,2013-11-20 17:01:00,
2013-11-20 11:06:00,40.6,32.3,30.23,SSW,199,6.0,11.0,72,0.00,,CLR,0.00,VWS V14.01,2013-11-20 17:06:00,
2013-11-20 11:10:00,40.6,32.3,30.23,SSW,194,9.0,11.0,72,0.00,,CLR,0.00,VWS V14.01,2013-11-20 17:10:00,
2013-11-20 11:12:00,40.5,31.9,30.23,West,259,3.0,12.0,71,0.00,,CLR,0.00,VWS V14.01,2013-11-20 17:12:00,
2013-11-20 11:17:00,40.4,31.8,30.22,SW,225,8.0,12.0,71,0.00,,CLR,0.00,VWS V14.01,2013-11-20 17:17:00,
2013-11-20 11:20:00,40.3,31.7,30.22,SW,214,5.0,12.0,71,0.00,,CLR,0.00,VWS V14.01,2013-11-20 17:20:00,
2013-11-20 11:22:00,40.5,32.2,30.22,SW,231,6.0,9.0,72,0.00,,SCT095,0.00,VWS V14.01,2013-11-20 17:22:00,
2013-11-20 11:27:00,40.6,32.0,30.22,SSW,193,2.0,9.0,71,0.00,,SCT095,0.00,VWS V14.01,2013-11-20 17:27:00,
2013-11-20 11:30:00,40.6,32.0,30.22,SW,234,4.0,9.0,71,0.00,,CLR,0.00,VWS V14.01,2013-11-20 17:30:00,
2013-11-20 11:32:00,40.9,32.6,30.22,SSW,195,4.0,6.0,72,0.00,,SCT095,0.00,VWS V14.01,2013-11-20 17:32:00,
2013-11-20 11:37:00,40.7,32.0,30.21,SW,221,2.0,10.0,71,0.00,,SCT095,0.00,VWS V14.01,2013-11-20 17:37:00,
2013-11-20 11:40:00,40.7,32.4,30.21,West,264,4.0,10.0,72,0.00,,CLR,0.00,VWS V14.01,2013-11-20 17:40:00,
2013-11-20 11:42:00,40.6,32.3,30.21,SSE,163,4.0,9.0,72,0.00,,BKN095,0.00,VWS V14.01,2013-11-20 17:42:00,
2013-11-20 11:47:00,40.6,32.3,30.21,SSW,198,2.0,9.0,72,0.00,,BKN095,0.00,VWS V14.01,2013-11-20 17:47:00,
2013-11-20 11:50:00,40.6,32.3,30.21,SSW,211,3.0,9.0,72,0.00,,CLR,0.00,VWS V14.01,2013-11-20 17:50:00,
2013-11-20 11:52:00,40.6,32.3,30.21,South,181,3.0,9.0,72,0.00,,BKN095,0.00,VWS V14.01,2013-11-20 17:52:00,
2013-11-20 11:57:00,40.6,32.3,30.20,SSE,155,2.0,9.0,72,0.00,,BKN095,0.00,VWS V14.01,2013-11-20 17:57:00,
2013-11-20 12:00:00,40.6,32.3,30.20,South,170,3.0,9.0,72,0.00,,CLR,0.00,VWS V14.01,2013-11-20 18:00:00,
2013-11-20 12:02:00,40.7,32.4,30.20,SSE,160,6.0,10.0,72,0.00,,BKN095,0.00,VWS V14.01,2013-11-20 18:02:00,
2013-11-20 12:07:00,41.2,33.2,30.20,WSW,238,4.0,10.0,73,0.00,,BKN095,0.00,VWS V14.01,2013-11-20 18:07:00,
2013-11-20 12:10:00,41.2,33.2,30.20,SW,226,6.0,10.0,73,0.00,,CLR,0.00,VWS V14.01,2013-11-20 18:10:00,
2013-11-20 12:12:00,41.4,33.1,30.20,SW,227,2.0,10.0,72,0.00,,BKN095,0.00,VWS V14.01,2013-11-20 18:12:00,
2013-11-20 12:17:00,41.4,32.7,30.19,SSW,207,5.0,11.0,71,0.00,,BKN095,0.00,VWS V14.01,2013-11-20 18:17:00,
2013-11-20 12:20:00,41.4,32.7,30.19,SSW,208,5.0,11.0,71,0.00,,CLR,0.00,VWS V14.01,2013-11-20 18:20:00,
2013-11-20 12:22:00,41.3,33.0,30.19,SSE,166,2.0,10.0,72,0.00,,SCT095,0.00,VWS V14.01,2013-11-20 18:22:00,
2013-11-20 12:28:00,41.4,33.1,30.19,SE,146,4.0,6.0,72,0.00,,SCT095,0.00,VWS V14.01,2013-11-20 18:28:00,
2013-11-20 12:30:00,41.4,33.1,30.19,South,169,6.0,10.0,72,0.00,,CLR,0.00,VWS V14.01,2013-11-20 18:30:00,
2013-11-20 12:33:00,41.4,33.1,30.18,SW,217,1.0,11.0,72,0.00,,SCT095,0.00,VWS V14.01,2013-11-20 18:33:00,
2013-11-20 12:38:00,41.3,33.0,30.18,SSE,148,3.0,7.0,72,0.00,,SCT095,0.00,VWS V14.01,2013-11-20 18:38:00,
2013-11-20 12:40:00,41.4,33.1,30.18,SSE,151,6.0,11.0,72,0.00,,CLR,0.00,VWS V14.01,2013-11-20 18:40:00,
2013-11-20 12:43:00,41.7,33.7,30.18,WSW,240,4.0,7.0,73,0.00,,SCT110,0.00,VWS V14.01,2013-11-20 18:43:00,
2013-11-20 12:48:00,41.9,33.5,30.17,WSW,255,2.0,3.0,72,0.00,,SCT110,0.00,VWS V14.01,2013-11-20 18:48:00,
2013-11-20 12:50:00,41.9,33.5,30.17,SSW,198,3.0,7.0,72,0.00,,CLR,0.00,VWS V14.01,2013-11-20 18:50:00,
2013-11-20 12:53:00,42.0,33.3,30.17,SSE,163,9.0,9.0,71,0.00,,SCT110,0.00,VWS V14.01,2013-11-20 18:53:00,
2013-11-20 12:58:00,41.7,33.0,30.17,South,191,4.0,6.0,71,0.00,,SCT110,0.00,VWS V14.01,2013-11-20 18:58:00,
2013-11-20 13:00:00,41.8,33.1,30.17,WSW,245,6.0,10.0,71,0.00,,CLR,0.00,VWS V14.01,2013-11-20 19:00:00,
2013-11-20 13:03:00,41.7,33.3,30.17,SE,143,5.0,8.0,72,0.00,,SCT110,0.00,VWS V14.01,2013-11-20 19:03:00,
2013-11-20 13:08:00,41.6,33.3,30.17,SSW,192,3.0,3.0,72,0.00,,SCT110,0.00,VWS V14.01,2013-11-20 19:08:00,
2013-11-20 13:10:00,41.5,33.2,30.17,WSW,249,2.0,10.0,72,0.00,,CLR,0.00,VWS V14.01,2013-11-20 19:10:00,
2013-11-20 13:13:00,41.5,33.2,30.17,ESE,108,3.0,10.0,72,0.00,,SCT110,0.00,VWS V14.01,2013-11-20 19:13:00,
2013-11-20 13:18:00,41.6,33.6,30.17,South,191,3.0,3.0,73,0.00,,SCT110,0.00,VWS V14.01,2013-11-20 19:18:00,
2013-11-20 13:20:00,41.6,33.6,30.17,WNW,289,2.0,11.0,73,0.00,,CLR,0.00,VWS V14.01,2013-11-20 19:20:00,
2013-11-20 13:23:00,41.7,33.3,30.17,WSW,238,4.0,7.0,72,0.00,,SCT110,0.00,VWS V14.01,2013-11-20 19:23:00,
2013-11-20 13:28:00,41.6,33.3,30.17,South,184,4.0,4.0,72,0.00,,SCT110,0.00,VWS V14.01,2013-11-20 19:28:00,
2013-11-20 13:30:00,41.5,33.2,30.17,SSW,207,4.0,10.0,72,0.00,,CLR,0.00,VWS V14.01,2013-11-20 19:30:00,
2013-11-20 13:33:00,41.5,33.2,30.16,WSW,248,4.0,13.0,72,0.00,,SCT110,0.00,VWS V14.01,2013-11-20 19:33:00,
2013-11-20 13:38:00,41.5,33.2,30.16,South,184,10.0,10.0,72,0.00,,SCT110,0.00,VWS V14.01,2013-11-20 19:38:00,
2013-11-20 13:40:00,41.5,33.2,30.16,South,186,7.0,13.0,72,0.00,,CLR,0.00,VWS V14.01,2013-11-20 19:40:00,
2013-11-20 13:43:00,41.7,33.3,30.16,South,186,4.0,10.0,72,0.00,,SCT090,0.00,VWS V14.01,2013-11-20 19:43:00,
2013-11-20 13:48:00,41.6,33.3,30.16,SW,225,4.0,12.0,72,0.00,,SCT090,0.00,VWS V14.01,2013-11-20 19:48:00,
2013-11-20 13:50:00,41.6,33.3,30.16,SW,218,12.0,13.0,72,0.00,,CLR,0.00,VWS V14.01,2013-11-20 19:50:00,
2013-11-20 13:53:00,41.6,33.3,30.16,SSW,207,5.0,12.0,72,0.00,,SCT090,0.00,VWS V14.01,2013-11-20 19:53:00,
2013-11-20 13:58:00,41.7,33.3,30.16,SE,135,6.0,8.0,72,0.00,,SCT090,0.00,VWS V14.01,2013-11-20 19:58:00,
2013-11-20 14:00:00,41.6,33.3,30.16,SSW,205,3.0,12.0,72,0.00,,CLR,0.00,VWS V14.01,2013-11-20 20:00:00,
2013-11-20 14:04:00,41.7,33.3,30.15,SSW,198,4.0,8.0,72,0.00,,CLR,0.00,VWS V14.01,2013-11-20 20:04:00,
2013-11-20 14:09:00,41.7,33.3,30.15,SSW,195,4.0,8.0,72,0.00,,CLR,0.00,VWS V14.01,2013-11-20 20:09:00,
2013-11-20 14:10:00,41.7,33.3,30.15,South,191,5.0,8.0,72,0.00,,CLR,0.00,VWS V14.01,2013-11-20 20:10:00,
2013-11-20 14:14:00,41.8,33.8,30.15,SW,233,1.0,8.0,73,0.00,,CLR,0.00,VWS V14.01,2013-11-20 20:14:00,
2013-11-20 14:19:00,41.8,33.8,30.15,WSW,243,4.0,7.0,73,0.00,,CLR,0.00,VWS V14.01,2013-11-20 20:19:00,
2013-11-20 14:20:00,41.8,33.8,30.15,SSE,162,3.0,8.0,73,0.00,,CLR,0.00,VWS V14.01,2013-11-20 20:20:00,
2013-11-20 14:24:00,41.8,33.8,30.15,SSE,159,3.0,7.0,73,0.00,,SCT110,0.00,VWS V14.01,2013-11-20 20:24:00,
2013-11-20 14:29:00,41.7,33.7,30.15,WSW,239,2.0,7.0,73,0.00,,SCT110,0.00,VWS V14.01,2013-11-20 20:29:00,
2013-11-20 14:30:00,41.7,33.7,30.15,SSW,212,5.0,8.0,73,0.00,,CLR,0.00,VWS V14.01,2013-11-20 20:30:00,
2013-11-20 14:34:00,41.7,33.7,30.14,SW,222,5.0,7.0,73,0.00,,SCT110,0.00,VWS V14.01,2013-11-20 20:34:00,
2013-11-20 14:39:00,41.6,33.9,30.13,SSW,207,4.0,9.0,74,0.00,,SCT110,0.00,VWS V14.01,2013-11-20 20:39:00,
2013-11-20 14:40:00,41.6,33.9,30.14,SSW,198,6.0,9.0,74,0.00,,CLR,0.00,VWS V14.01,2013-11-20 20:40:00,
2013-11-20 14:44:00,41.5,34.2,30.13,SSE,152,2.0,9.0,75,0.00,,SCT090,0.00,VWS V14.01,2013-11-20 20:44:00,
2013-11-20 14:49:00,41.3,34.3,30.13,SW,219,4.0,9.0,76,0.00,,SCT090,0.00,VWS V14.01,2013-11-20 20:49:00,
2013-11-20 14:50:00,41.4,34.4,30.13,South,183,5.0,9.0,76,0.00,,CLR,0.00,VWS V14.01,2013-11-20 20:50:00,
2013-11-20 14:54:00,41.1,34.5,30.12,SSE,157,4.0,9.0,77,0.00,,SCT090,0.00,VWS V14.01,2013-11-20 20:54:00,
2013-11-20 14:59:00,40.9,34.9,30.12,SE,146,3.0,6.0,79,0.01,,SCT090,0.01,VWS V14.01,2013-11-20 20:59:00,
2013-11-20 15:00:00,40.9,34.9,30.13,SE,146,6.0,9.0,79,0.01,,CLR,0.01,VWS V14.01,2013-11-20 21:00:00,
2013-11-20 15:04:00,40.6,35.2,30.13,SSE,157,2.0,7.0,81,0.02,,-RA,0.02,VWS V14.01,2013-11-20 21:04:00,
2013-11-20 15:09:00,40.3,35.6,30.13,South,176,4.0,6.0,83,0.02,,-RA,0.02,VWS V14.01,2013-11-20 21:09:00,
2013-11-20 15:10:00,40.4,35.3,30.13,SSW,193,4.0,7.0,82,0.02,,CLR,0.02,VWS V14.01,2013-11-20 21:10:00,
2013-11-20 15:14:00,40.1,36.0,30.14,South,191,5.0,6.0,85,0.03,,-RA,0.03,VWS V14.01,2013-11-20 21:14:00,
2013-11-20 15:20:00,39.9,36.1,30.14,South,187,2.0,7.0,86,0.03,,-RA,0.03,VWS V14.01,2013-11-20 21:20:00,
2013-11-20 15:25:00,39.7,36.2,30.14,South,179,4.0,7.0,87,0.04,,-RA,0.04,VWS V14.01,2013-11-20 21:25:00,
2013-11-20 15:30:00,39.5,36.2,30.14,SW,217,4.0,8.0,88,0.05,,-RA,0.05,VWS V14.01,2013-11-20 21:30:00,
2013-11-20 15:35:00,39.3,36.0,30.13,SSW,200,4.0,8.0,88,0.06,,-RA,0.06,VWS V14.01,2013-11-20 21:35:00,
2013-11-20 15:40:00,39.2,36.2,30.12,South,186,4.0,7.0,89,0.07,,-RA,0.07,VWS V14.01,2013-11-20 21:40:00,
2013-11-20 15:45:00,39.1,36.1,30.11,ESE,121,6.0,11.0,89,0.08,,-RA,0.08,VWS V14.01,2013-11-20 21:45:00,
2013-11-20 15:50:00,39.0,36.0,30.11,SW,225,6.0,12.0,89,0.08,,-RA,0.08,VWS V14.01,2013-11-20 21:50:00,
2013-11-20 15:55:00,38.9,36.2,30.11,SE,141,4.0,12.0,90,0.09,,-RA,0.09,VWS V14.01,2013-11-20 21:55:00,
2013-11-20 16:00:00,38.8,36.1,30.10,SSW,192,6.0,11.0,90,0.08,,-RA,0.09,VWS V14.01,2013-11-20 22:00:00,
2013-11-20 16:05:00,38.8,36.1,30.10,South,183,13.0,13.0,90,0.08,,-RA,0.09,VWS V14.01,2013-11-20 22:05:00,
2013-11-20 16:10:00,38.9,36.2,30.10,South,172,4.0,9.0,90,0.07,,-RA,0.09,VWS V14.01,2013-11-20 22:10:00,
2013-11-20 16:15:00,38.9,36.2,30.11,South,170,3.0,9.0,90,0.07,,-RA,0.09,VWS V14.01,2013-11-20 22:15:00,
2013-11-20 16:20:00,38.9,36.2,30.11,SSE,150,5.0,10.0,90,0.06,,-RA,0.09,VWS V14.01,2013-11-20 22:20:00,
2013-11-20 16:25:00,38.8,36.1,30.11,SSE,150,4.0,11.0,90,0.07,,-RA,0.10,VWS V14.01,2013-11-20 22:25:00,
2013-11-20 16:30:00,38.9,36.2,30.11,SW,217,3.0,10.0,90,0.05,,-RA,0.10,VWS V14.01,2013-11-20 22:30:00,
2013-11-20 16:35:00,38.8,36.1,30.11,SSE,160,2.0,11.0,90,0.05,,-RA,0.10,VWS V14.01,2013-11-20 22:35:00,
2013-11-20 16:40:00,38.8,36.4,30.10,South,187,8.0,12.0,91,0.03,,OVC080,0.10,VWS V14.01,2013-11-20 22:40:00,
2013-11-20 16:45:00,38.8,36.4,30.09,SE,135,7.0,12.0,91,0.03,,OVC080,0.10,VWS V14.01,2013-11-20 22:45:00,
2013-11-20 16:50:00,38.8,36.4,30.09,South,179,3.0,12.0,91,0.03,,CLR,0.10,VWS V14.01,2013-11-20 22:50:00,
2013-11-20 16:51:00,38.8,36.4,30.09,South,169,4.0,11.0,91,0.02,,OVC080,0.10,VWS V14.01,2013-11-20 22:51:00,
2013-11-20 16:56:00,38.8,36.4,30.10,SE,129,3.0,12.0,91,0.02,,OVC080,0.10,VWS V14.01,2013-11-20 22:56:00,
2013-11-20 17:00:00,38.9,36.5,30.10,East,98,6.0,12.0,91,0.02,,CLR,0.10,VWS V14.01,2013-11-20 23:00:00,
2013-11-20 17:01:00,38.9,36.5,30.10,SW,224,4.0,13.0,91,0.01,,OVC080,0.10,VWS V14.01,2013-11-20 23:01:00,
2013-11-20 17:06:00,39.0,36.6,30.11,South,181,6.0,13.0,91,0.01,,OVC080,0.10,VWS V14.01,2013-11-20 23:06:00,
2013-11-20 17:10:00,39.0,36.6,30.11,SE,135,7.0,13.0,91,0.01,,CLR,0.10,VWS V14.01,2013-11-20 23:10:00,
2013-11-20 17:11:00,39.0,36.6,30.11,South,190,7.0,7.0,91,0.01,,OVC070,0.10,VWS V14.01,2013-11-20 23:11:00,
2013-11-20 17:16:00,39.1,36.7,30.11,SSE,153,1.0,10.0,91,0.01,,OVC070,0.10,VWS V14.01,2013-11-20 23:16:00,
2013-11-20 17:20:00,39.1,36.7,30.11,South,181,8.0,11.0,91,0.01,,CLR,0.10,VWS V14.01,2013-11-20 23:20:00,
2013-11-20 17:21:00,39.2,36.8,30.11,SSE,152,0.0,11.0,91,0.01,,-RA,0.10,VWS V14.01,2013-11-20 23:21:00,
2013-11-20 17:26:00,39.3,36.9,30.12,SE,145,1.0,11.0,91,0.01,,-RA,0.10,VWS V14.01,2013-11-20 23:26:00,
2013-11-20 17:30:00,39.3,36.9,30.12,SW,231,1.0,11.0,91,0.01,,CLR,0.10,VWS V14.01,2013-11-20 23:30:00,
2013-11-20 17:31:00,39.3,36.9,30.12,SSW,201,3.0,5.0,91,0.00,,-RA,0.10,VWS V14.01,2013-11-20 23:31:00,
2013-11-20 17:36:00,39.3,36.9,30.12,SSE,162,4.0,6.0,91,0.00,,-RA,0.10,VWS V14.01,2013-11-20 23:36:00,
2013-11-20 17:40:00,39.3,36.9,30.12,SSW,208,3.0,6.0,91,0.00,,CLR,0.10,VWS V14.01,2013-11-20 23:40:00,
2013-11-20 17:41:00,39.3,36.9,30.12,SE,141,7.0,7.0,91,0.00,,-RA,0.10,VWS V14.01,2013-11-20 23:41:00,
2013-11-20 17:46:00,39.3,37.2,30.11,ESE,118,5.0,8.0,92,0.00,,-RA,0.10,VWS V14.01,2013-11-20 23:46:00,
2013-11-20 17:50:00,39.3,37.2,30.12,South,181,6.0,8.0,92,0.00,,CLR,0.10,VWS V14.01,2013-11-20 23:50:00,
2013-11-20 17:51:00,39.4,37.3,30.11,SSE,162,4.0,8.0,92,0.00,,-RA,0.10,VWS V14.01,2013-11-20 23:51:00,
2013-11-20 17:56:00,39.4,37.0,30.12,SSE,160,2.0,8.0,91,0.00,,-RA,0.10,VWS V14.01,2013-11-20 23:56:00,
2013-11-20 18:00:00,39.4,37.0,30.12,SE,145,5.0,8.0,91,0.00,,CLR,0.10,VWS V14.01,2013-11-21 00:00:00,
2013-11-20 18:01:00,39.4,37.0,30.12,SSE,156,3.0,7.0,91,0.00,,-RA,0.10,VWS V14.01,2013-11-21 00:01:00,
2013-11-20 18:07:00,39.5,37.1,30.11,SSW,205,4.0,8.0,91,0.00,,-RA,0.10,VWS V14.01,2013-11-21 00:07:00,
2013-11-20 18:10:00,39.4,37.0,30.11,SE,139,4.0,8.0,91,0.00,,CLR,0.10,VWS V14.01,2013-11-21 00:10:00,
2013-11-20 18:12:00,39.5,37.1,30.13,South,188,3.0,6.0,91,0.00,,-RA,0.10,VWS V14.01,2013-11-21 00:12:00,
2013-11-20 18:17:00,39.5,36.8,30.14,SSE,155,3.0,6.0,90,0.00,,-RA,0.10,VWS V14.01,2013-11-21 00:17:00,
2013-11-20 18:20:00,39.5,36.8,30.14,SSW,199,3.0,6.0,90,0.00,,CLR,0.10,VWS V14.01,2013-11-21 00:20:00,
2013-11-20 18:22:00,39.6,36.9,30.16,West,262,1.0,4.0,90,0.00,,RA,0.10,VWS V14.01,2013-11-21 00:22:00,
2013-11-20 18:27:00,39.6,37.2,30.16,SSW,195,1.0,5.0,91,0.01,,RA,0.11,VWS V14.01,2013-11-21 00:27:00,
2013-11-20 18:30:00,39.6,37.2,30.16,South,187,2.0,5.0,91,0.01,,CLR,0.11,VWS V14.01,2013-11-21 00:30:00,
2013-11-20 18:32:00,39.5,37.1,30.16,South,186,3.0,5.0,91,0.01,,RA,0.11,VWS V14.01,2013-11-21 00:32:00,
2013-11-20 18:37:00,39.4,37.0,30.15,South,170,1.0,7.0,91,0.02,,RA,0.12,VWS V14.01,2013-11-21 00:37:00,
2013-11-20 18:40:00,39.4,37.0,30.15,SSE,167,2.0,7.0,91,0.02,,CLR,0.12,VWS V14.01,2013-11-21 00:40:00,
2013-11-20 18:42:00,39.3,37.2,30.15,SSE,149,3.0,8.0,92,0.02,,-RA,0.12,VWS V14.01,2013-11-21 00:42:00,
2013-11-20 18:47:00,39.2,37.1,30.15,SSE,167,3.0,8.0,92,0.03,,-RA,0.13,VWS V14.01,2013-11-21 00:47:00,
2013-11-20 18:50:00,39.2,37.1,30.14,SSE,167,2.0,8.0,92,0.03,,CLR,0.13,VWS V14.01,2013-11-21 00:50:00,
2013-11-20 18:52:00,39.2,37.1,30.15,SSW,193,1.0,4.0,92,0.03,,-RA,0.13,VWS V14.01,2013-11-21 00:52:00,
2013-11-20 18:57:00,39.2,37.1,30.16,SSE,159,2.0,4.0,92,0.04,,-RA,0.14,VWS V14.01,2013-11-21 00:57:00,
2013-11-20 19:00:00,39.2,37.1,30.16,SE,145,1.0,4.0,92,0.04,,CLR,0.14,VWS V14.01,2013-11-21 01:00:00,
2013-11-20 19:02:00,39.2,37.1,30.16,ESE,120,3.0,5.0,92,0.04,,-RA,0.14,VWS V14.01,2013-11-21 01:02:00,
2013-11-20 19:07:00,39.2,37.1,30.15,SSE,155,5.0,6.0,92,0.04,,-RA,0.14,VWS V14.01,2013-11-21 01:07:00,
2013-11-20 19:10:00,39.2,37.1,30.16,SSW,199,4.0,6.0,92,0.04,,CLR,0.14,VWS V14.01,2013-11-21 01:10:00,
2013-11-20 19:12:00,39.2,37.3,30.16,SSE,166,4.0,7.0,93,0.04,,-RA,0.14,VWS V14.01,2013-11-21 01:12:00,
2013-11-20 19:17:00,39.2,37.3,30.17,SSW,208,1.0,7.0,93,0.04,,-RA,0.14,VWS V14.01,2013-11-21 01:17:00,
2013-11-20 19:20:00,39.2,37.3,30.17,SSW,207,1.0,7.0,93,0.04,,CLR,0.14,VWS V14.01,2013-11-21 01:20:00,
2013-11-20 19:22:00,39.2,37.3,30.16,SSE,152,4.0,8.0,93,0.04,,-RA,0.14,VWS V14.01,2013-11-21 01:22:00,
2013-11-20 19:27:00,39.2,37.3,30.16,SSE,152,3.0,8.0,93,0.05,,-RA,0.15,VWS V14.01,2013-11-21 01:27:00,
2013-11-20 19:30:00,39.2,37.3,30.16,SSE,151,3.0,8.0,93,0.05,,CLR,0.15,VWS V14.01,2013-11-21 01:30:00,
2013-11-20 19:32:00,39.2,37.3,30.16,South,173,3.0,5.0,93,0.04,,-RA,0.15,VWS V14.01,2013-11-21 01:32:00,
2013-11-20 19:37:00,39.2,37.3,30.16,South,172,4.0,6.0,93,0.05,,-RA,0.16,VWS V14.01,2013-11-21 01:37:00,
2013-11-20 19:40:00,39.2,37.3,30.16,South,172,4.0,6.0,93,0.05,,CLR,0.16,VWS V14.01,2013-11-21 01:40:00,
2013-11-20 19:43:00,39.1,37.2,30.16,South,184,0.0,5.0,93,0.04,,OVC060,0.16,VWS V14.01,2013-11-21 01:43:00,
2013-11-20 19:48:00,39.1,37.2,30.16,SSE,159,4.0,4.0,93,0.03,,OVC060,0.16,VWS V14.01,2013-11-21 01:48:00,
2013-11-20 19:50:00,39.1,37.2,30.16,ESE,120,2.0,6.0,93,0.04,,CLR,0.16,VWS V14.01,2013-11-21 01:50:00,
2013-11-20 19:53:00,39.1,37.2,30.15,South,179,3.0,8.0,93,0.03,,OVC060,0.16,VWS V14.01,2013-11-21 01:53:00,
2013-11-20 19:58:00,39.1,37.2,30.15,South,181,4.0,4.0,93,0.02,,OVC060,0.16,VWS V14.01,2013-11-21 01:58:00,
2013-11-20 20:00:00,39.1,37.2,30.15,SSE,168,2.0,8.0,93,0.03,,CLR,0.16,VWS V14.01,2013-11-21 02:00:00,
2013-11-20 20:03:00,39.1,37.2,30.15,SSW,200,2.0,9.0,93,0.02,,RA,0.16,VWS V14.01,2013-11-21 02:03:00,
2013-11-20 20:08:00,39.1,37.2,30.15,SSE,157,4.0,8.0,93,0.02,,RA,0.16,VWS V14.01,2013-11-21 02:08:00,
2013-11-20 20:10:00,39.1,37.2,30.15,SSW,211,3.0,9.0,93,0.02,,CLR,0.16,VWS V14.01,2013-11-21 02:10:00,
2013-11-20 20:13:00,39.2,37.3,30.15,South,169,4.0,9.0,93,0.02,,RA,0.16,VWS V14.01,2013-11-21 02:13:00,
2013-11-20 20:18:00,39.2,37.3,30.15,South,172,2.0,6.0,93,0.02,,RA,0.16,VWS V14.01,2013-11-21 02:18:00,
2013-11-20 20:20:00,39.2,37.3,30.15,South,172,4.0,9.0,93,0.02,,CLR,0.16,VWS V14.01,2013-11-21 02:20:00,
2013-11-20 20:23:00,39.2,37.3,30.14,SE,135,2.0,8.0,93,0.02,,OVC075,0.16,VWS V14.01,2013-11-21 02:23:00,
2013-11-20 20:28:00,39.3,37.5,30.15,SW,215,3.0,5.0,93,0.01,,OVC075,0.16,VWS V14.01,2013-11-21 02:28:00,
2013-11-20 20:30:00,39.3,37.5,30.15,SSW,212,5.0,9.0,93,0.02,,CLR,0.16,VWS V14.01,2013-11-21 02:30:00,
2013-11-20 20:33:00,39.3,37.5,30.15,South,190,5.0,7.0,93,0.01,,OVC075,0.16,VWS V14.01,2013-11-21 02:33:00,
2013-11-20 20:38:00,39.4,37.5,30.15,SE,134,3.0,3.0,93,0.00,,OVC075,0.16,VWS V14.01,2013-11-21 02:38:00,
2013-11-20 20:40:00,39.4,37.5,30.15,South,172,2.0,7.0,93,0.01,,CLR,0.16,VWS V14.01,2013-11-21 02:40:00,
2013-11-20 20:43:00,39.5,37.7,30.15,SE,139,2.0,7.0,93,0.00,,OVC075,0.16,VWS V14.01,2013-11-21 02:43:00,
2013-11-20 20:48:00,39.5,37.7,30.15,South,169,0.0,6.0,93,0.00,,OVC075,0.16,VWS V14.01,2013-11-21 02:48:00,
2013-11-20 20:50:00,39.5,37.7,30.15,South,190,6.0,7.0,93,0.00,,CLR,0.16,VWS V14.01,2013-11-21 02:50:00,
2013-11-20 20:53:00,39.6,37.8,30.15,SSW,210,6.0,6.0,93,0.00,,OVC075,0.16,VWS V14.01,2013-11-21 02:53:00,
2013-11-20 20:58:00,39.6,37.8,30.15,SSE,166,3.0,3.0,93,0.00,,OVC075,0.16,VWS V14.01,2013-11-21 02:58:00,
2013-11-20 21:00:00,39.6,37.8,30.15,SSW,197,2.0,6.0,93,0.00,,CLR,0.16,VWS V14.01,2013-11-21 03:00:00,
2013-11-20 21:03:00,39.7,37.6,30.15,SSE,156,4.0,6.0,92,0.00,,OVC075,0.16,VWS V14.01,2013-11-21 03:03:00,
2013-11-20 21:09:00,39.7,37.6,30.15,SE,127,3.0,4.0,92,0.00,,OVC075,0.16,VWS V14.01,2013-11-21 03:09:00,
2013-11-20 21:10:00,39.7,37.6,30.15,SSW,207,2.0,7.0,92,0.00,,CLR,0.16,VWS V14.01,2013-11-21 03:10:00,
2013-11-20 21:14:00,39.7,37.6,30.14,SSW,199,2.0,6.0,92,0.00,,OVC075,0.16,VWS V14.01,2013-11-21 03:14:00,
2013-11-20 21:19:00,39.8,37.7,30.14,SSE,160,6.0,6.0,92,0.00,,OVC075,0.16,VWS V14.01,2013-11-21 03:19:00,
2013-11-20 21:20:00,39.8,37.7,30.14,SSW,195,3.0,9.0,92,0.00,,CLR,0.16,VWS V14.01,2013-11-21 03:20:00,
2013-11-20 21:24:00,40.0,37.9,30.14,South,184,3.0,8.0,92,0.00,,OVC075,0.16,VWS V14.01,2013-11-21 03:24:00,
2013-11-20 21:29:00,40.0,37.9,30.14,SSE,163,4.0,5.0,92,0.00,,OVC075,0.16,VWS V14.01,2013-11-21 03:29:00,
2013-11-20 21:30:00,40.0,37.9,30.15,SW,235,2.0,8.0,92,0.00,,CLR,0.16,VWS V14.01,2013-11-21 03:30:00,
2013-11-20 21:34:00,40.1,38.0,30.14,SE,124,5.0,8.0,92,0.00,,OVC075,0.16,VWS V14.01,2013-11-21 03:34:00,
2013-11-20 21:39:00,40.1,38.0,30.14,SW,219,3.0,4.0,92,0.00,,OVC075,0.16,VWS V14.01,2013-11-21 03:39:00,
2013-11-20 21:40:00,40.1,38.0,30.14,SSW,195,3.0,8.0,92,0.00,,CLR,0.16,VWS V14.01,2013-11-21 03:40:00,
2013-11-20 21:44:00,40.2,38.1,30.14,SSW,197,2.0,5.0,92,0.00,,OVC065,0.16,VWS V14.01,2013-11-21 03:44:00,
2013-11-20 21:49:00,40.2,38.1,30.14,SSW,198,2.0,2.0,92,0.00,,OVC065,0.16,VWS V14.01,2013-11-21 03:49:00,
2013-11-20 21:50:00,40.2,38.1,30.14,South,169,2.0,6.0,92,0.00,,CLR,0.16,VWS V14.01,2013-11-21 03:50:00,
2013-11-20 21:54:00,40.2,38.1,30.14,SSW,212,1.0,4.0,92,0.00,,OVC065,0.16,VWS V14.01,2013-11-21 03:54:00,
2013-11-20 21:59:00,40.3,38.2,30.14,SSE,159,4.0,5.0,92,0.00,,OVC065,0.16,VWS V14.01,2013-11-21 03:59:00,
2013-11-20 22:00:00,40.2,38.1,30.14,South,173,3.0,6.0,92,0.00,,CLR,0.16,VWS V14.01,2013-11-21 04:00:00,
2013-11-20 22:04:00,40.4,38.3,30.14,ESE,118,1.0,5.0,92,0.00,,OVC065,0.16,VWS V14.01,2013-11-21 04:04:00,
2013-11-20 22:09:00,40.4,38.3,30.14,South,181,2.0,5.0,92,0.00,,OVC065,0.16,VWS V14.01,2013-11-21 04:09:00,
2013-11-20 22:10:00,40.4,38.3,30.14,South,173,4.0,6.0,92,0.00,,CLR,0.16,VWS V14.01,2013-11-21 04:10:00,
2013-11-20 22:14:00,40.5,38.4,30.14,SSW,193,2.0,6.0,92,0.00,,OVC065,0.16,VWS V14.01,2013-11-21 04:14:00,
2013-11-20 22:20:00,40.5,38.4,30.14,East,95,3.0,4.0,92,0.00,,OVC065,0.16,VWS V14.01,2013-11-21 04:20:00,
2013-11-20 22:25:00,40.6,38.2,30.14,SSW,194,2.0,5.0,91,0.00,,OVC055,0.16,VWS V14.01,2013-11-21 04:25:00,
2013-11-20 22:30:00,40.6,38.2,30.14,South,190,1.0,4.0,91,0.00,,OVC055,0.16,VWS V14.01,2013-11-21 04:30:00,
2013-11-20 22:35:00,40.6,38.2,30.14,SSE,166,3.0,6.0,91,0.00,,OVC055,0.16,VWS V14.01,2013-11-21 04:35:00,
2013-11-20 22:40:00,40.7,38.3,30.14,South,186,2.0,4.0,91,0.00,,OVC050,0.16,VWS V14.01,2013-11-21 04:40:00,
2013-11-20 22:45:00,40.7,38.3,30.14,South,170,5.0,6.0,91,0.00,,OVC050,0.16,VWS V14.01,2013-11-21 04:45:00,
2013-11-20 22:50:00,40.8,38.4,30.14,SE,143,1.0,3.0,91,0.00,,OVC050,0.16,VWS V14.01,2013-11-21 04:50:00,
2013-11-20 22:55:00,40.8,38.4,30.14,SSW,198,1.0,6.0,91,0.00,,OVC050,0.16,VWS V14.01,2013-11-21 04:55:00,
2013-11-20 23:00:00,40.9,38.5,30.14,SSE,167,1.0,4.0,91,0.00,,OVC050,0.16,VWS V14.01,2013-11-21 05:00:00,
2013-11-20 23:01:00,40.9,38.5,30.14,SSE,162,2.0,4.0,91,0.00,,OVC050,0.16,VWS V14.01,2013-11-21 05:01:00,
2013-11-20 23:02:00,40.9,38.5,30.14,SW,235,1.0,6.0,91,0.00,,OVC050,0.16,VWS V14.01,2013-11-21 05:02:00,
2013-11-20 23:03:00,40.9,38.5,30.14,SSE,167,1.0,6.0,91,0.00,,OVC050,0.16,VWS V14.01,2013-11-21 05:03:00,
2013-11-20 23:04:00,40.9,38.5,30.14,SW,222,1.0,6.0,91,0.00,,OVC050,0.16,VWS V14.01,2013-11-21 05:04:00,
2013-11-20 23:09:00,41.0,38.6,30.14,South,183,3.0,5.0,91,0.00,,OVC050,0.16,VWS V14.01,2013-11-21 05:09:00,
2013-11-20 23:10:00,41.0,38.6,30.14,SSE,148,3.0,7.0,91,0.00,,CLR,0.16,VWS V14.01,2013-11-21 05:10:00,
2013-11-20 23:14:00,41.1,38.7,30.14,SSW,200,1.0,5.0,91,0.00,,OVC050,0.16,VWS V14.01,2013-11-21 05:14:00,
2013-11-20 23:20:00,41.1,38.7,30.14,SSW,201,0.0,3.0,91,0.00,,OVC050,0.16,VWS V14.01,2013-11-21 05:20:00,
2013-11-20 23:25:00,41.2,38.8,30.14,SSW,197,4.0,4.0,91,0.00,,OVC050,0.16,VWS V14.01,2013-11-21 05:25:00,
2013-11-20 23:30:00,41.2,38.8,30.14,SSW,199,0.0,4.0,91,0.00,,OVC050,0.16,VWS V14.01,2013-11-21 05:30:00,
2013-11-20 23:35:00,41.3,38.9,30.14,SSW,211,1.0,4.0,91,0.00,,OVC050,0.16,VWS V14.01,2013-11-21 05:35:00,
2013-11-20 23:40:00,41.4,39.0,30.14,SSE,166,3.0,4.0,91,0.00,,OVC050,0.16,VWS V14.01,2013-11-21 05:40:00,
2013-11-20 23:45:00,41.5,39.1,30.14,SSE,165,5.0,6.0,91,0.00,,OVC050,0.16,VWS V14.01,2013-11-21 05:45:00,
2013-11-20 23:50:00,41.7,39.3,30.14,South,172,2.0,4.0,91,0.00,,OVC050,0.16,VWS V14.01,2013-11-21 05:50:00,
2013-11-20 23:55:00,41.9,39.5,30.14,SSE,167,2.0,6.0,91,0.00,,OVC050,0.16,VWS V14.01,2013-11-21 05:55:00,
2013-11-20 23:57:00,41.9,39.2,30.14,SSW,204,3.0,6.0,90,0.00,,OVC050,0.16,VWS V14.01,2013-11-21 05:57:00,